NWK0361 YPPD-YPXM

Flight info

Callsign NWK0361
Flight time 2h 23m
Altitude 36000
Route PD R206 ATMAL DCT XCHNG
Aircraft A320/M-SDE3FGHIRWY/LB1

Departure

Time 2026-04-20 17:22
Airport Port Hedland International Airport (YPPD)

Arrival

Time 2026-04-20 19:45
Airport Christmas Island International Airport (YPXM)
Time Latitude Longitude Altitude Speed Heading
2026-04-20 16:53 -20.37866 118.63153 45 ft 0 kts 40°
2026-04-20 17:16 -20.37864 118.63155 45 ft 1 kts 40°
2026-04-20 17:17 -20.37878 118.63177 45 ft 8 kts 184°
2026-04-20 17:17 -20.37944 118.63136 45 ft 11 kts 192°
2026-04-20 17:17 -20.38012 118.63173 45 ft 8 kts 149°
2026-04-20 17:17 -20.38067 118.63152 45 ft 9 kts 226°
2026-04-20 17:18 -20.38112 118.63095 45 ft 10 kts 230°
2026-04-20 17:18 -20.38168 118.63028 45 ft 15 kts 227°
2026-04-20 17:18 -20.38267 118.63000 45 ft 16 kts 147°
2026-04-20 17:18 -20.38366 118.63093 45 ft 22 kts 137°
2026-04-20 17:19 -20.38500 118.63223 45 ft 24 kts 137°
2026-04-20 17:19 -20.38626 118.63346 45 ft 23 kts 137°
2026-04-20 17:19 -20.38753 118.63469 45 ft 21 kts 137°
2026-04-20 17:19 -20.38866 118.63581 46 ft 22 kts 137°
2026-04-20 17:20 -20.38989 118.63705 47 ft 20 kts 130°
2026-04-20 17:20 -20.39047 118.63784 47 ft 6 kts 190°
2026-04-20 17:20 -20.39046 118.63757 47 ft 2 kts 317°
2026-04-20 17:20 -20.39042 118.63753 47 ft 0 kts 315°
2026-04-20 17:21 -20.39023 118.63733 47 ft 20 kts 315°
2026-04-20 17:21 -20.38732 118.63450 45 ft 90 kts 317°
2026-04-20 17:21 -20.38115 118.62847 45 ft 148 kts 317°
2026-04-20 17:21 -20.37226 118.61979 232 ft 179 kts 317°
2026-04-20 17:22 -20.36321 118.61094 898 ft 176 kts 318°
2026-04-20 17:22 -20.35408 118.60209 1577 ft 176 kts 319°
2026-04-20 17:22 -20.34484 118.59327 2108 ft 180 kts 320°
2026-04-20 17:22 -20.33486 118.58369 2382 ft 195 kts 320°
2026-04-20 17:23 -20.32416 118.57343 2663 ft 210 kts 320°
2026-04-20 17:23 -20.31265 118.56242 2862 ft 230 kts 320°
2026-04-20 17:23 -20.29978 118.55029 3220 ft 245 kts 318°
2026-04-20 17:23 -20.28833 118.53612 3573 ft 262 kts 308°
2026-04-20 17:24 -20.27753 118.51981 4015 ft 273 kts 307°
2026-04-20 17:24 -20.26658 118.50291 4658 ft 276 kts 307°
2026-04-20 17:24 -20.25548 118.48599 5315 ft 279 kts 308°
2026-04-20 17:24 -20.24427 118.46920 5942 ft 282 kts 308°
2026-04-20 17:25 -20.23258 118.45188 6583 ft 286 kts 308°
2026-04-20 17:25 -20.22060 118.43428 7240 ft 289 kts 308°
2026-04-20 17:25 -20.20824 118.41622 7909 ft 292 kts 308°
2026-04-20 17:25 -20.19590 118.39820 8568 ft 295 kts 307°
2026-04-20 17:26 -20.18361 118.38027 9209 ft 298 kts 307°
2026-04-20 17:26 -20.17141 118.36247 9810 ft 301 kts 307°
2026-04-20 17:26 -20.15889 118.34423 10347 ft 306 kts 307°
2026-04-20 17:26 -20.14603 118.32550 10611 ft 320 kts 307°
2026-04-20 17:27 -20.13254 118.30587 10931 ft 331 kts 307°
2026-04-20 17:27 -20.11855 118.28555 11462 ft 334 kts 307°
2026-04-20 17:27 -20.10453 118.26517 12010 ft 335 kts 306°
2026-04-20 17:27 -20.09051 118.24480 12524 ft 336 kts 306°
2026-04-20 17:28 -20.07651 118.22446 13010 ft 338 kts 306°
2026-04-20 17:28 -20.06235 118.20386 13502 ft 339 kts 306°
2026-04-20 17:28 -20.04810 118.18314 13991 ft 340 kts 306°
2026-04-20 17:28 -20.03369 118.16219 14477 ft 341 kts 306°
2026-04-20 17:29 -20.01934 118.14134 14940 ft 343 kts 306°
2026-04-20 17:29 -20.00503 118.12055 15375 ft 344 kts 306°
2026-04-20 17:29 -19.99052 118.09950 15817 ft 346 kts 306°
2026-04-20 17:29 -19.97603 118.07849 16255 ft 347 kts 306°
2026-04-20 17:30 -19.96157 118.05753 16671 ft 348 kts 306°
2026-04-20 17:30 -19.94692 118.03632 17058 ft 351 kts 306°
2026-04-20 17:30 -19.93214 118.01491 17464 ft 352 kts 306°
2026-04-20 17:30 -19.91731 117.99345 17881 ft 353 kts 306°
2026-04-20 17:31 -19.90240 117.97186 18278 ft 355 kts 306°
2026-04-20 17:31 -19.88764 117.95051 18673 ft 356 kts 306°
2026-04-20 17:31 -19.87251 117.92863 19081 ft 358 kts 306°
2026-04-20 17:31 -19.85747 117.90688 19478 ft 359 kts 306°
2026-04-20 17:32 -19.84242 117.88515 19873 ft 360 kts 306°
2026-04-20 17:32 -19.82720 117.86315 20270 ft 361 kts 306°
2026-04-20 17:32 -19.81203 117.84126 20642 ft 363 kts 306°
2026-04-20 17:32 -19.79691 117.81942 21013 ft 364 kts 306°
2026-04-20 17:33 -19.78170 117.79747 21393 ft 365 kts 306°
2026-04-20 17:33 -19.76636 117.77533 21666 ft 369 kts 306°
2026-04-20 17:33 -19.75096 117.75314 21894 ft 374 kts 306°
2026-04-20 17:33 -19.73568 117.73109 22195 ft 376 kts 306°
2026-04-20 17:34 -19.72011 117.70869 22525 ft 378 kts 306°
2026-04-20 17:34 -19.70445 117.68614 22873 ft 379 kts 306°
2026-04-20 17:34 -19.68880 117.66362 23195 ft 380 kts 306°
2026-04-20 17:34 -19.67314 117.64109 23503 ft 381 kts 306°
2026-04-20 17:35 -19.65729 117.61829 23799 ft 383 kts 306°
2026-04-20 17:35 -19.64130 117.59528 24098 ft 385 kts 306°
2026-04-20 17:35 -19.62550 117.57257 24397 ft 386 kts 306°
2026-04-20 17:35 -19.60935 117.54935 24687 ft 387 kts 306°
2026-04-20 17:36 -19.59344 117.52651 24974 ft 388 kts 306°
2026-04-20 17:36 -19.57711 117.50305 25247 ft 390 kts 306°
2026-04-20 17:36 -19.56090 117.47978 25519 ft 391 kts 306°
2026-04-20 17:36 -19.54481 117.45669 25783 ft 393 kts 306°
2026-04-20 17:37 -19.52834 117.43308 26070 ft 393 kts 306°
2026-04-20 17:37 -19.51205 117.40971 26324 ft 395 kts 306°
2026-04-20 17:37 -19.49558 117.38611 26564 ft 397 kts 306°
2026-04-20 17:37 -19.47893 117.36225 26808 ft 398 kts 306°
2026-04-20 17:38 -19.46228 117.33841 27069 ft 399 kts 306°
2026-04-20 17:38 -19.44567 117.31463 27317 ft 401 kts 306°
2026-04-20 17:38 -19.42887 117.29060 27572 ft 402 kts 306°
2026-04-20 17:38 -19.41214 117.26666 27811 ft 403 kts 306°
2026-04-20 17:39 -19.39529 117.24256 28045 ft 405 kts 306°
2026-04-20 17:39 -19.37842 117.21844 28285 ft 406 kts 306°
2026-04-20 17:39 -19.36158 117.19437 28514 ft 407 kts 306°
2026-04-20 17:39 -19.34468 117.17023 28756 ft 408 kts 306°
2026-04-20 17:40 -19.32770 117.14600 28996 ft 409 kts 306°
2026-04-20 17:40 -19.31089 117.12198 29207 ft 410 kts 306°
2026-04-20 17:40 -19.29381 117.09759 29433 ft 411 kts 306°
2026-04-20 17:40 -19.27668 117.07313 29660 ft 412 kts 306°
2026-04-20 17:41 -19.25972 117.04896 29865 ft 414 kts 306°
2026-04-20 17:41 -19.24246 117.02438 30080 ft 415 kts 306°
2026-04-20 17:41 -19.22517 116.99977 30294 ft 416 kts 306°
2026-04-20 17:41 -19.20803 116.97537 30504 ft 417 kts 306°
2026-04-20 17:42 -19.19071 116.95069 30795 ft 415 kts 307°
2026-04-20 17:42 -19.17345 116.92612 31104 ft 414 kts 307°
2026-04-20 17:42 -19.15628 116.90169 31392 ft 412 kts 307°
2026-04-20 17:42 -19.13872 116.87672 31656 ft 412 kts 307°
2026-04-20 17:43 -19.12111 116.85168 31916 ft 411 kts 307°
2026-04-20 17:43 -19.10378 116.82704 32180 ft 410 kts 307°
2026-04-20 17:43 -19.08646 116.80244 32406 ft 410 kts 307°
2026-04-20 17:43 -19.06894 116.77756 32604 ft 411 kts 307°
2026-04-20 17:44 -19.05174 116.75312 32795 ft 411 kts 307°
2026-04-20 17:44 -19.03438 116.72848 32989 ft 412 kts 307°
2026-04-20 17:44 -19.01700 116.70386 33166 ft 413 kts 307°
2026-04-20 17:44 -18.99932 116.67883 33349 ft 414 kts 307°
2026-04-20 17:45 -18.98145 116.65378 33539 ft 414 kts 308°
2026-04-20 17:45 -18.96304 116.62837 33715 ft 415 kts 308°
2026-04-20 17:45 -18.94490 116.60337 33882 ft 415 kts 308°
2026-04-20 17:46 -18.90980 116.55494 33907 ft 417 kts 307°
2026-04-20 17:46 -18.87459 116.50628 33911 ft 417 kts 307°
2026-04-20 17:47 -18.83963 116.45798 33909 ft 416 kts 308°
2026-04-20 17:47 -18.80352 116.40816 33911 ft 416 kts 308°
2026-04-20 17:48 -18.76805 116.35923 33909 ft 416 kts 307°
2026-04-20 17:48 -18.73261 116.31039 33912 ft 417 kts 308°
2026-04-20 17:49 -18.69743 116.26193 33908 ft 417 kts 308°
2026-04-20 17:49 -18.66211 116.21330 33912 ft 416 kts 308°
2026-04-20 17:50 -18.62678 116.16469 33908 ft 417 kts 308°
2026-04-20 17:50 -18.59158 116.11631 33911 ft 417 kts 308°
2026-04-20 17:51 -18.55633 116.06791 33910 ft 417 kts 308°
2026-04-20 17:51 -18.52100 116.01943 33908 ft 417 kts 308°
2026-04-20 17:52 -18.48559 115.97088 33912 ft 417 kts 308°
2026-04-20 17:52 -18.45044 115.92270 33909 ft 417 kts 308°
2026-04-20 17:53 -18.41498 115.87414 33911 ft 417 kts 308°
2026-04-20 17:53 -18.37951 115.82560 33913 ft 417 kts 308°
2026-04-20 17:54 -18.34430 115.77746 33915 ft 416 kts 308°
2026-04-20 17:54 -18.30889 115.72910 33905 ft 417 kts 308°
2026-04-20 17:55 -18.27345 115.68072 33916 ft 417 kts 308°
2026-04-20 17:55 -18.23804 115.63243 33920 ft 417 kts 308°
2026-04-20 17:56 -18.20262 115.58415 33925 ft 417 kts 308°
2026-04-20 17:56 -18.16720 115.53591 33930 ft 418 kts 308°
2026-04-20 17:57 -18.13165 115.48749 33933 ft 417 kts 308°
2026-04-20 17:57 -18.09615 115.43923 33932 ft 418 kts 308°
2026-04-20 17:58 -18.06071 115.39107 33932 ft 417 kts 308°
2026-04-20 17:58 -18.02514 115.34274 33935 ft 416 kts 309°
2026-04-20 17:59 -17.98964 115.29459 33931 ft 416 kts 308°
2026-04-20 17:59 -17.95427 115.24663 33932 ft 417 kts 308°
2026-04-20 18:00 -17.91876 115.19852 33928 ft 417 kts 308°
2026-04-20 18:00 -17.88291 115.14998 33927 ft 418 kts 308°
2026-04-20 18:01 -17.84733 115.10181 33932 ft 417 kts 308°
2026-04-20 18:01 -17.81170 115.05363 33929 ft 417 kts 309°
2026-04-20 18:02 -17.77603 115.00546 33929 ft 417 kts 308°
2026-04-20 18:02 -17.74044 114.95742 33925 ft 418 kts 308°
2026-04-20 18:03 -17.70483 114.90939 33926 ft 418 kts 308°
2026-04-20 18:03 -17.66906 114.86118 33928 ft 417 kts 308°
2026-04-20 18:04 -17.63333 114.81306 33929 ft 418 kts 308°
2026-04-20 18:04 -17.59766 114.76502 33931 ft 418 kts 308°
2026-04-20 18:05 -17.54402 114.69288 33931 ft 418 kts 308°
2026-04-20 18:05 -17.50822 114.64475 33932 ft 418 kts 308°
2026-04-20 18:06 -17.47229 114.59652 33934 ft 420 kts 308°
2026-04-20 18:06 -17.43642 114.54839 33931 ft 420 kts 308°
2026-04-20 18:07 -17.40041 114.50008 33922 ft 421 kts 308°
2026-04-20 18:07 -17.36420 114.45156 33917 ft 421 kts 308°
2026-04-20 18:08 -17.32800 114.40308 33918 ft 422 kts 308°
2026-04-20 18:08 -17.29204 114.35498 33924 ft 421 kts 308°
2026-04-20 18:09 -17.25584 114.30660 33925 ft 421 kts 309°
2026-04-20 18:09 -17.21955 114.25811 33926 ft 422 kts 309°
2026-04-20 18:10 -17.18337 114.20982 33927 ft 423 kts 309°
2026-04-20 18:10 -17.14707 114.16137 33928 ft 423 kts 309°
2026-04-20 18:11 -17.11073 114.11293 33928 ft 423 kts 309°
2026-04-20 18:11 -17.07444 114.06457 33929 ft 423 kts 309°
2026-04-20 18:12 -17.03787 114.01592 33931 ft 424 kts 309°
2026-04-20 18:12 -17.00156 113.96760 33931 ft 424 kts 309°
2026-04-20 18:13 -16.96511 113.91915 33929 ft 424 kts 309°
2026-04-20 18:13 -16.92853 113.87054 33930 ft 424 kts 308°
2026-04-20 18:14 -16.89201 113.82206 33929 ft 425 kts 308°
2026-04-20 18:14 -16.85539 113.77348 33926 ft 425 kts 308°
2026-04-20 18:15 -16.81876 113.72492 33929 ft 425 kts 308°
2026-04-20 18:15 -16.78214 113.67640 33927 ft 425 kts 308°
2026-04-20 18:16 -16.74568 113.62814 33927 ft 424 kts 308°
2026-04-20 18:16 -16.70906 113.57971 33925 ft 425 kts 308°
2026-04-20 18:17 -16.67236 113.53118 33925 ft 425 kts 308°
2026-04-20 18:17 -16.63575 113.48283 33926 ft 426 kts 308°
2026-04-20 18:18 -16.59894 113.43420 33923 ft 425 kts 308°
2026-04-20 18:18 -16.56252 113.38613 33917 ft 425 kts 308°
2026-04-20 18:19 -16.52575 113.33765 33913 ft 426 kts 308°
2026-04-20 18:19 -16.48888 113.28909 33907 ft 426 kts 308°
2026-04-20 18:20 -16.45216 113.24076 33907 ft 427 kts 308°
2026-04-20 18:20 -16.41516 113.19210 33909 ft 427 kts 308°
2026-04-20 18:21 -16.37845 113.14381 33910 ft 427 kts 308°
2026-04-20 18:21 -16.34144 113.09519 33908 ft 427 kts 308°
2026-04-20 18:22 -16.30471 113.04694 33909 ft 427 kts 308°
2026-04-20 18:22 -16.26765 112.99831 33911 ft 426 kts 308°
2026-04-20 18:23 -16.23059 112.94971 33908 ft 427 kts 308°
2026-04-20 18:23 -16.19358 112.90122 33908 ft 428 kts 308°
2026-04-20 18:24 -16.15599 112.85200 33911 ft 428 kts 308°
2026-04-20 18:24 -16.11847 112.80290 33913 ft 429 kts 308°
2026-04-20 18:25 -16.08106 112.75397 33912 ft 427 kts 308°
2026-04-20 18:25 -16.04383 112.70532 33911 ft 427 kts 308°
2026-04-20 18:26 -16.00638 112.65641 33910 ft 427 kts 308°
2026-04-20 18:26 -15.96909 112.60774 33909 ft 427 kts 308°
2026-04-20 18:27 -15.93177 112.55907 33913 ft 428 kts 308°
2026-04-20 18:27 -15.89406 112.50991 33919 ft 429 kts 308°
2026-04-20 18:28 -15.85639 112.46083 33916 ft 429 kts 308°
2026-04-20 18:28 -15.81853 112.41155 33919 ft 429 kts 308°
2026-04-20 18:29 -15.78049 112.36208 33918 ft 430 kts 308°
2026-04-20 18:29 -15.74293 112.31327 33921 ft 429 kts 308°
2026-04-20 18:30 -15.70498 112.26396 33920 ft 429 kts 308°
2026-04-20 18:30 -15.66711 112.21479 33919 ft 430 kts 308°
2026-04-20 18:31 -15.62926 112.16567 33919 ft 430 kts 308°
2026-04-20 18:31 -15.59074 112.11572 33922 ft 430 kts 308°
2026-04-20 18:32 -15.55273 112.06648 33919 ft 431 kts 308°
2026-04-20 18:32 -15.51417 112.01657 33921 ft 432 kts 308°
2026-04-20 18:33 -15.47585 111.96698 33924 ft 432 kts 308°
2026-04-20 18:33 -15.43738 111.91723 33921 ft 432 kts 308°
2026-04-20 18:34 -15.39871 111.86726 33922 ft 431 kts 308°
2026-04-20 18:34 -15.36015 111.81744 33918 ft 431 kts 308°
2026-04-20 18:35 -15.32170 111.76783 33914 ft 433 kts 308°
2026-04-20 18:35 -15.28304 111.71796 33913 ft 432 kts 308°
2026-04-20 18:36 -15.24467 111.66849 33914 ft 432 kts 308°
2026-04-20 18:36 -15.20628 111.61903 33913 ft 432 kts 308°
2026-04-20 18:37 -15.16745 111.56903 33915 ft 433 kts 308°
2026-04-20 18:37 -15.12878 111.51926 33916 ft 433 kts 308°
2026-04-20 18:38 -15.08987 111.46919 33911 ft 434 kts 308°
2026-04-20 18:38 -15.05108 111.41930 33912 ft 434 kts 308°
2026-04-20 18:39 -15.01211 111.36928 33912 ft 434 kts 308°
2026-04-20 18:39 -14.97295 111.31921 33914 ft 434 kts 308°
2026-04-20 18:40 -14.93390 111.26924 33910 ft 434 kts 308°
2026-04-20 18:40 -14.89486 111.21923 33911 ft 434 kts 308°
2026-04-20 18:41 -14.85566 111.16908 33905 ft 434 kts 308°
2026-04-20 18:41 -14.81682 111.11939 33906 ft 434 kts 308°
2026-04-20 18:42 -14.77773 111.06941 33907 ft 435 kts 308°
2026-04-20 18:42 -14.73881 111.01969 33911 ft 434 kts 308°
2026-04-20 18:43 -14.69996 110.97006 33910 ft 434 kts 308°
2026-04-20 18:43 -14.66117 110.92056 33910 ft 434 kts 308°
2026-04-20 18:44 -14.62240 110.87112 33913 ft 435 kts 308°
2026-04-20 18:44 -14.58371 110.82182 33912 ft 435 kts 308°
2026-04-20 18:45 -14.54495 110.77245 33914 ft 435 kts 308°
2026-04-20 18:45 -14.50632 110.72326 33912 ft 435 kts 308°
2026-04-20 18:46 -14.46735 110.67366 33907 ft 436 kts 308°
2026-04-20 18:46 -14.42853 110.62432 33907 ft 435 kts 308°
2026-04-20 18:47 -14.38972 110.57503 33903 ft 435 kts 308°
2026-04-20 18:47 -14.35085 110.52566 33901 ft 436 kts 308°
2026-04-20 18:48 -14.31216 110.47656 33902 ft 436 kts 308°
2026-04-20 18:48 -14.27340 110.42738 33902 ft 436 kts 308°
2026-04-20 18:49 -14.23459 110.37819 33900 ft 436 kts 309°
2026-04-20 18:49 -14.19556 110.32875 33894 ft 437 kts 309°
2026-04-20 18:50 -14.15656 110.27939 33894 ft 437 kts 309°
2026-04-20 18:50 -14.11750 110.22997 33888 ft 437 kts 309°
2026-04-20 18:51 -14.07842 110.18054 33892 ft 437 kts 309°
2026-04-20 18:51 -14.03936 110.13119 33891 ft 437 kts 309°
2026-04-20 18:52 -14.00060 110.08223 33889 ft 437 kts 309°
2026-04-20 18:52 -13.96168 110.03309 33891 ft 436 kts 309°
2026-04-20 18:53 -13.92283 109.98407 33891 ft 436 kts 309°
2026-04-20 18:53 -13.88369 109.93472 33890 ft 437 kts 309°
2026-04-20 18:54 -13.84436 109.88516 33893 ft 438 kts 309°
2026-04-20 18:54 -13.80495 109.83553 33891 ft 438 kts 309°
2026-04-20 18:55 -13.76560 109.78600 33895 ft 437 kts 309°
2026-04-20 18:55 -13.72636 109.73662 33900 ft 437 kts 309°
2026-04-20 18:56 -13.68710 109.68726 33905 ft 437 kts 309°
2026-04-20 18:56 -13.64785 109.63796 33903 ft 437 kts 309°
2026-04-20 18:57 -13.60865 109.58871 33901 ft 437 kts 309°
2026-04-20 18:57 -13.56948 109.53953 33898 ft 437 kts 309°
2026-04-20 18:58 -13.53062 109.49075 33898 ft 437 kts 309°
2026-04-20 18:58 -13.49133 109.44143 33892 ft 437 kts 309°
2026-04-20 18:59 -13.45242 109.39266 33890 ft 437 kts 309°
2026-04-20 18:59 -13.41321 109.34370 33892 ft 437 kts 309°
2026-04-20 19:00 -13.37388 109.29459 33892 ft 437 kts 309°
2026-04-20 19:00 -13.33462 109.24554 33892 ft 437 kts 309°
2026-04-20 19:01 -13.29524 109.19634 33891 ft 437 kts 309°
2026-04-20 19:01 -13.25578 109.14705 33888 ft 437 kts 309°
2026-04-20 19:02 -13.21650 109.09801 33888 ft 438 kts 309°
2026-04-20 19:02 -13.17752 109.04938 33888 ft 437 kts 309°
2026-04-20 19:03 -13.13819 109.00032 33889 ft 437 kts 309°
2026-04-20 19:03 -13.09922 108.95177 33888 ft 436 kts 309°
2026-04-20 19:04 -13.06005 108.90295 33895 ft 437 kts 309°
2026-04-20 19:04 -13.02083 108.85412 33892 ft 437 kts 309°
2026-04-20 19:05 -12.98174 108.80548 33890 ft 437 kts 309°
2026-04-20 19:05 -12.94317 108.75753 33889 ft 438 kts 309°
2026-04-20 19:06 -12.90435 108.70926 33889 ft 437 kts 309°
2026-04-20 19:06 -12.86562 108.66113 33889 ft 437 kts 309°
2026-04-20 19:07 -12.82679 108.61292 33890 ft 437 kts 309°
2026-04-20 19:07 -12.78811 108.56494 33890 ft 437 kts 309°
2026-04-20 19:08 -12.73012 108.49300 33889 ft 438 kts 309°
2026-04-20 19:09 -12.69137 108.44497 33890 ft 438 kts 309°
2026-04-20 19:09 -12.65260 108.39695 33888 ft 438 kts 309°
2026-04-20 19:10 -12.61367 108.34875 33886 ft 438 kts 309°
2026-04-20 19:10 -12.57484 108.30070 33883 ft 437 kts 309°
2026-04-20 19:11 -12.53616 108.25287 33882 ft 437 kts 309°
2026-04-20 19:11 -12.49754 108.20512 33880 ft 437 kts 309°
2026-04-20 19:12 -12.45871 108.15713 33880 ft 437 kts 309°
2026-04-20 19:12 -12.42006 108.10940 33879 ft 437 kts 309°
2026-04-20 19:13 -12.38103 108.06123 33878 ft 437 kts 309°
2026-04-20 19:13 -12.34239 108.01356 33873 ft 437 kts 309°
2026-04-20 19:14 -12.30349 107.96558 33871 ft 437 kts 309°
2026-04-20 19:14 -12.26479 107.91788 33872 ft 437 kts 309°
2026-04-20 19:15 -12.22605 107.87014 33875 ft 437 kts 309°
2026-04-20 19:15 -12.18712 107.82220 33872 ft 437 kts 309°
2026-04-20 19:16 -12.14832 107.77445 33873 ft 437 kts 308°
2026-04-20 19:16 -12.10966 107.72687 33871 ft 437 kts 308°
2026-04-20 19:17 -12.07071 107.67892 33870 ft 438 kts 308°
2026-04-20 19:17 -12.03190 107.63119 33870 ft 437 kts 308°
2026-04-20 19:18 -11.99232 107.58405 33869 ft 437 kts 312°
2026-04-20 19:18 -11.95004 107.53941 33870 ft 437 kts 313°
2026-04-20 19:19 -11.90767 107.49492 33869 ft 438 kts 313°
2026-04-20 19:19 -11.86538 107.45046 33869 ft 438 kts 313°
2026-04-20 19:20 -11.82264 107.40552 33869 ft 438 kts 313°
2026-04-20 19:20 -11.77981 107.36050 33870 ft 438 kts 313°
2026-04-20 19:21 -11.73655 107.31502 33870 ft 439 kts 313°
2026-04-20 19:21 -11.69295 107.26923 33870 ft 438 kts 313°
2026-04-20 19:22 -11.65000 107.22413 33870 ft 438 kts 313°
2026-04-20 19:22 -11.60651 107.17848 33870 ft 438 kts 313°
2026-04-20 19:23 -11.56286 107.13268 33871 ft 439 kts 313°
2026-04-20 19:23 -11.51991 107.08765 33870 ft 438 kts 313°
2026-04-20 19:24 -11.47685 107.04253 33871 ft 438 kts 313°
2026-04-20 19:24 -11.43401 106.99766 33779 ft 439 kts 313°
2026-04-20 19:24 -11.41249 106.97512 33468 ft 437 kts 313°
2026-04-20 19:25 -11.39094 106.95257 33012 ft 435 kts 313°
2026-04-20 19:25 -11.36964 106.93027 32445 ft 432 kts 313°
2026-04-20 19:25 -11.34845 106.90807 31805 ft 433 kts 313°
2026-04-20 19:25 -11.32748 106.88608 31083 ft 435 kts 313°
2026-04-20 19:26 -11.30597 106.86354 30314 ft 439 kts 314°
2026-04-20 19:26 -11.28444 106.84100 29521 ft 443 kts 314°
2026-04-20 19:26 -11.26268 106.81821 28887 ft 442 kts 315°
2026-04-20 19:26 -11.24091 106.79546 28336 ft 439 kts 315°
2026-04-20 19:27 -11.21945 106.77306 27823 ft 436 kts 315°
2026-04-20 19:27 -11.19809 106.75079 27320 ft 433 kts 315°
2026-04-20 19:27 -11.17637 106.72812 26815 ft 429 kts 315°
2026-04-20 19:27 -11.15443 106.70522 26270 ft 427 kts 315°
2026-04-20 19:28 -11.13254 106.68236 25732 ft 424 kts 315°
2026-04-20 19:28 -11.11076 106.65963 25202 ft 421 kts 315°
2026-04-20 19:28 -11.08926 106.63719 24677 ft 419 kts 315°
2026-04-20 19:28 -11.06777 106.61476 24154 ft 416 kts 315°
2026-04-20 19:29 -11.04720 106.59330 23645 ft 414 kts 315°
2026-04-20 19:29 -11.02672 106.57194 23143 ft 412 kts 315°
2026-04-20 19:29 -11.00647 106.55084 22639 ft 410 kts 315°
2026-04-20 19:29 -10.98604 106.52953 22139 ft 408 kts 315°
2026-04-20 19:30 -10.96602 106.50864 21652 ft 407 kts 315°
2026-04-20 19:30 -10.94590 106.48764 21169 ft 406 kts 315°
2026-04-20 19:30 -10.92615 106.46706 20693 ft 404 kts 315°
2026-04-20 19:30 -10.90658 106.44666 20219 ft 402 kts 315°
2026-04-20 19:31 -10.88702 106.42627 19741 ft 401 kts 316°
2026-04-20 19:31 -10.86720 106.40563 19248 ft 400 kts 316°
2026-04-20 19:31 -10.84725 106.38486 18749 ft 399 kts 316°
2026-04-20 19:31 -10.82702 106.36379 18221 ft 398 kts 316°
2026-04-20 19:32 -10.80737 106.34335 17724 ft 397 kts 317°
2026-04-20 19:32 -10.78786 106.32304 17220 ft 395 kts 317°
2026-04-20 19:32 -10.76837 106.30280 16731 ft 393 kts 317°
2026-04-20 19:32 -10.74905 106.28272 16239 ft 391 kts 317°
2026-04-20 19:33 -10.72990 106.26283 15749 ft 389 kts 317°
2026-04-20 19:33 -10.71076 106.24294 15263 ft 387 kts 317°
2026-04-20 19:33 -10.69183 106.22327 14781 ft 385 kts 317°
2026-04-20 19:33 -10.67275 106.20343 14294 ft 383 kts 317°
2026-04-20 19:34 -10.65394 106.18389 13807 ft 382 kts 317°
2026-04-20 19:34 -10.63500 106.16421 13317 ft 380 kts 317°
2026-04-20 19:34 -10.61605 106.14450 12825 ft 378 kts 317°
2026-04-20 19:34 -10.59727 106.12501 12338 ft 376 kts 317°
2026-04-20 19:35 -10.57874 106.10577 11862 ft 374 kts 317°
2026-04-20 19:35 -10.56003 106.08635 11380 ft 371 kts 317°
2026-04-20 19:35 -10.54139 106.06699 10893 ft 369 kts 317°
2026-04-20 19:35 -10.52211 106.04698 10394 ft 367 kts 317°
2026-04-20 19:36 -10.50311 106.02727 10118 ft 358 kts 317°
2026-04-20 19:36 -10.48522 106.00866 9993 ft 344 kts 317°
2026-04-20 19:36 -10.46775 105.99050 9852 ft 329 kts 317°
2026-04-20 19:36 -10.45022 105.97229 9370 ft 318 kts 317°
2026-04-20 19:37 -10.43412 105.95558 8931 ft 305 kts 317°
2026-04-20 19:37 -10.41812 105.93897 8573 ft 291 kts 317°
2026-04-20 19:37 -10.40245 105.92274 8208 ft 288 kts 317°
2026-04-20 19:37 -10.38663 105.90638 7831 ft 289 kts 317°
2026-04-20 19:38 -10.37097 105.89017 7448 ft 290 kts 317°
2026-04-20 19:38 -10.35510 105.87374 7062 ft 291 kts 317°
2026-04-20 19:38 -10.33936 105.85741 6673 ft 292 kts 317°
2026-04-20 19:38 -10.32349 105.84098 6284 ft 293 kts 317°
2026-04-20 19:39 -10.30778 105.82470 5901 ft 293 kts 317°
2026-04-20 19:39 -10.29205 105.80841 5517 ft 294 kts 317°
2026-04-20 19:39 -10.27748 105.79332 5353 ft 283 kts 317°
2026-04-20 19:39 -10.26394 105.77924 5268 ft 267 kts 317°
2026-04-20 19:40 -10.25089 105.76566 5138 ft 260 kts 314°
2026-04-20 19:40 -10.24190 105.74989 4986 ft 255 kts 281°
2026-04-20 19:40 -10.24358 105.73154 4706 ft 252 kts 245°
2026-04-20 19:40 -10.25246 105.71474 4423 ft 250 kts 236°
2026-04-20 19:41 -10.26170 105.69891 4136 ft 250 kts 238°
2026-04-20 19:41 -10.27076 105.68272 3979 ft 242 kts 231°
2026-04-20 19:41 -10.28370 105.67224 3529 ft 234 kts 191°
2026-04-20 19:41 -10.29949 105.67238 3216 ft 216 kts 161°
2026-04-20 19:42 -10.31364 105.67612 3030 ft 206 kts 162°
2026-04-20 19:42 -10.32751 105.67896 2836 ft 196 kts 166°
2026-04-20 19:42 -10.34073 105.68089 2762 ft 179 kts 168°
2026-04-20 19:42 -10.35306 105.68235 2597 ft 170 kts 169°
2026-04-20 19:43 -10.36426 105.68347 2414 ft 152 kts 170°
2026-04-20 19:43 -10.37443 105.68442 2200 ft 139 kts 170°
2026-04-20 19:43 -10.38417 105.68532 2022 ft 138 kts 171°
2026-04-20 19:43 -10.39369 105.68618 1840 ft 137 kts 172°
2026-04-20 19:44 -10.40334 105.68703 1649 ft 136 kts 173°
2026-04-20 19:44 -10.41282 105.68782 1456 ft 136 kts 173°
2026-04-20 19:44 -10.42242 105.68861 1256 ft 136 kts 173°
2026-04-20 19:44 -10.43194 105.68946 1114 ft 136 kts 172°
2026-04-20 19:45 -10.44150 105.69028 924 ft 136 kts 173°
2026-04-20 19:45 -10.44967 105.69099 893 ft 80 kts 175°
2026-04-20 19:45 -10.45243 105.69122 893 ft 8 kts 168°
2026-04-20 19:45 -10.45258 105.69128 893 ft 0 kts 153°
2026-04-20 19:46 -10.45283 105.69121 893 ft 5 kts 323°
2026-04-20 19:46 -10.45225 105.69113 893 ft 12 kts 355°
2026-04-20 19:46 -10.45107 105.69097 893 ft 15 kts 320°
2026-04-20 19:46 -10.45100 105.69009 893 ft 11 kts 264°
2026-04-20 19:47 -10.45116 105.68949 893 ft 4 kts 219°
2026-04-20 19:47 -10.45132 105.68936 893 ft 0 kts 219°